Simultaneous Nadir Overpasses (SNOs) Predictions

Prediction of SNOs between NOAA-19 and METOP-C Satellite Orbit:

Table of predicted SNOs for the next 14.0 days since TLE Epoch: 3/13/2021
Index Date (NOAA-19) Time (NOAA-19) Lat,Lon (NOAA-19) SZA (NOAA-19 ) Date (METOP-C) Time (METOP-C) Lat,Lon (METOP-C) SZA (METOP-C ) Distance(km) Time Diff (sec)
1 03/20/2021 08:21:49 -80.42, -98.32 98.69 03/20/2021 08:22:43 -80.43, -98.21 98.66 1.94 54
2 03/20/2021 09:12:44 80.42, 69.09 81.31 03/20/2021 09:13:24 80.41, 68.92 81.30 3.37 40
3 03/20/2021 10:03:49 -80.42,-123.67 98.71 03/20/2021 10:04:05 -80.42,-123.69 98.71 0.29 16
4 03/20/2021 10:54:44 80.41, 43.73 81.29 03/20/2021 10:54:45 80.43, 43.76 81.30 1.84 1
5 03/20/2021 11:45:49 -80.41,-149.03 98.73 03/20/2021 11:45:27 -80.41,-149.17 98.75 2.51 22
6 03/20/2021 12:36:44 80.40, 18.37 81.26 03/20/2021 12:36:07 80.42, 18.29 81.26 2.11 37
7 03/20/2021 13:27:49 -80.40,-174.39 98.76 03/20/2021 13:26:48 -80.42,-174.32 98.75 2.38 61



Historial Predications of SNOs between NOAA-19 and METOP-C
